GFSFLT1_con_mucape_000.txt.gz
CAPE
260 366 337 556 410 490 1302 1654 1722 1799 2024 1760 2097 1840 1453 0 0 0 0 0 0 0 0 0 0 0 0 0 0 19 44 121 1
149 348 292 419 297 485 960 1354 1572 1710 1678 1883 1645 1193 51 0 6 1 26 43 48 0 0 0 0 0 0 0 15 0 41 65 223
35 132 233 299 308 501 1080 1211 1585 1740 1497 1690 1577 1046 39 0 17 25 41 10 0 0 0 0 0 0 0 0 0 0 0 17 52
38 56 98 313 354 449 1115 1238 1477 1772 1659 1725 1753 1292 116 121 248 130 23 6 0 0 0 0 72 121 79 12 0 33 151 139 192
74 69 100 171 300 370 843 1161 1498 1704 1728 1795 1833 1197 325 308 445 417 200 57 29 5 16 12 0 0 0 0 1 47 65 139 227
46 27 31 126 217 249 519 962 1405 1564 1675 1829 1817 1252 532 415 559 552 166 97 46 14 8 5 0 0 0 0 3 18 47 46 121
5 19 30 56 188 270 390 863 1221 1485 1599 1753 1706 1060 714 702 469 187 97 75 39 19 20 15 1 0 0 55 0 13 57 90 262
32 118 137 124 232 293 549 849 1077 1402 1504 1630 1490 1037 881 827 464 376 75 31 31 24 40 39 12 4 88 52 45 46 273 317 148
0 54 571 268 278 621 894 993 1172 1280 1413 1571 1384 1196 1112 885 431 381 115 92 91 128 120 220 52 79 162 159 30 211 83 67 41
9 15 56 792 951 948 1154 1287 1269 1282 1333 1410 1456 1462 1108 567 468 277 213 229 267 279 251 216 172 123 235 38 160 95 154 89 65
8 5 0 1 815 1423 1348 1660 1553 1406 1448 1527 1651 1357 944 472 515 352 340 342 339 323 336 370 440 468 256 278 161 195 303 177 90
0 0 0 2 156 423 1068 1579 1855 1774 1754 1808 1754 1214 505 486 573 619 455 410 368 418 425 514 640 471 61 151 284 227 252 121 38
4 165 228 338 528 1298 1465 1619 1871 1971 1967 2039 1649 1217 770 469 543 525 408 396 461 489 609 746 643 478 295 234 205 167 77 74 16
293 364 462 613 1447 1674 1776 1784 1826 1914 1971 1998 1619 1094 568 371 646 604 481 553 732 846 906 842 648 414 57 124 160 85 65 26 25
80 215 405 652 1465 1803 1835 1790 1824 1857 1828 1493 1150 659 452 493 459 543 738 920 1226 1074 924 754 352 113 35 115 159 140 66 48 20
16 3 11 328 879 1861 1903 1849 1822 1869 1529 1102 777 630 707 513 209 61 39 661 1196 1038 698 434 171 59 203 226 132 75 42 2 1
987 993 935 1404 1660 1884 2040 1931 1804 1543 1105 1018 814 773 509 139 18 0 70 715 661 461 455 303 133 175 144 58 34 17 0 0 2
1096 1052 1203 1531 1866 2009 2023 1864 1469 1101 790 602 382 163 69 2 14 130 455 442 580 466 370 195 65 13 24 37 0 0 0 0 0
1202 1244 1391 1689 1951 1820 1416 950 620 506 297 129 100 32 27 3 166 358 586 665 400 355 178 102 51 73 73 5 7 0 0 0 0
985 1066 1538 1671 1270 899 735 551 318 243 187 96 24 33 140 141 282 768 425 287 300 191 46 75 74 83 48 21 0 0 0 0 6

GFSFLT1_con_mucape_006.txt.gz
CAPE
138 221 360 503 609 543 674 584 671 693 800 846 1157 1450 1628 1754 1964 1693 1749 237 312 353 0 0 0 11 1 0 0 0 0 0 0
119 141 329 483 616 691 836 731 736 783 1015 1068 1197 1461 1676 1877 2175 1898 2014 9 110 26 0 0 0 0 0 0 0 0 0 0 0
83 98 295 401 550 690 899 871 802 843 1084 1235 1265 1432 1618 1828 2060 2215 536 2 21 7 0 0 0 0 0 0 0 0 0 0 0
17 65 156 350 608 751 918 908 834 897 1178 1397 1454 1409 1536 1578 1921 1830 135 0 0 0 0 0 0 0 0 0 0 0 0 0 0
0 36 109 229 576 755 856 863 857 984 1231 1448 1572 1506 1607 1498 1649 1549 736 0 0 3 15 0 0 0 0 0 0 0 0 0 0
3 20 72 159 378 692 842 865 936 1093 1321 1417 1558 1560 1553 1684 1453 1427 989 95 18 18 72 0 0 0 0 0 0 0 0 0 0
10 20 44 148 252 428 617 747 819 1120 1352 1395 1431 1473 1547 1667 1578 1460 1108 398 59 80 13 0 0 0 0 0 0 0 0 0 0
13 19 75 109 244 335 448 553 646 754 1076 1305 1415 1412 1366 1540 1602 1521 1289 811 142 119 6 0 2 0 0 0 0 0 0 0 0
37 60 124 172 196 231 333 395 480 593 921 1095 1397 1391 1323 1347 1407 1528 1391 621 294 266 199 141 38 23 1 1 0 0 0 0 5
111 180 166 193 211 189 148 205 340 471 817 1060 1374 1412 1380 1345 1328 1371 1069 154 46 576 561 363 113 43 12 5 13 19 12 23 22
56 144 158 185 150 111 72 71 145 332 677 1034 1346 1443 1449 1424 1415 1313 1058 292 10 369 475 104 64 86 97 37 94 139 113 144 66
10 73 86 65 123 207 132 146 216 418 650 1003 1307 1412 1490 1495 1432 1415 899 280 18 121 508 250 147 153 156 119 152 195 243 85 98
66 85 149 182 387 345 359 394 566 694 788 975 1205 1315 1428 1504 1560 1515 965 557 99 65 359 444 237 256 134 160 206 273 124 122 38
170 183 160 192 283 518 518 547 681 905 1019 1086 1053 1188 1337 1559 1478 1605 1052 436 264 236 390 459 238 87 18 31 24 83 182 79 74
242 244 246 163 113 340 627 749 785 878 909 865 1010 1220 1455 1411 1322 1300 759 441 346 397 356 241 67 32 33 5 1 123 70 108 64
314 341 263 373 410 501 541 704 863 946 862 918 1220 1405 1384 1152 1090 865 536 413 273 190 34 29 20 72 48 55 168 97 93 130 99
171 183 310 479 547 603 683 761 806 985 1205 1276 1300 1105 902 855 767 571 414 278 148 89 30 0 17 91 139 185 100 81 116 93 53
571 597 508 573 559 665 832 978 1056 1134 1303 1104 763 597 575 527 591 506 341 217 175 3 1 64 132 147 156 142 99 46 26 6 0
462 543 655 704 669 687 917 955 999 1076 960 685 442 212 134 136 152 150 63 13 51 11 87 133 136 146 116 74 18 9 0 0 0
0 19 284 715 830 722 937 838 843 764 747 745 512 63 57 38 20 1 3 0 0 0 9 198 175 75 37 0 5 0 0 0 0

GFSFLT1_con_mucape_009.txt.gz
CAPE
182 218 268 380 532 864 869 911 1065 1210 1767 2178 1823 1881 2507 2649 2770 2438 2095 1660 1002 906 934 637 265 314 359 530 173 86 220 219 223
229 307 476 528 605 693 1070 1171 1521 1704 1985 2183 1887 1858 2448 2457 2596 2406 2059 1342 1169 821 793 244 256 293 396 178 0 52 271 63 214
258 448 606 661 969 891 1146 1157 1383 1516 1913 2172 2138 1882 2244 2368 2462 2266 2119 1494 1411 487 438 230 293 326 182 50 4 18 264 91 83
253 464 748 993 1076 1044 1166 1218 1321 1593 1621 1992 1980 2082 2552 2518 2250 1925 1821 1702 1625 274 334 275 308 329 123 81 48 65 168 226 97
77 520 872 862 1027 1107 1106 1329 1210 1420 1521 1625 2266 2435 2502 2125 1902 1710 1526 1656 1281 356 26 210 205 242 194 147 103 145 270 228 0
98 289 515 848 972 1408 1296 1372 1769 1506 1806 1750 1846 2296 2036 1893 1374 1117 1538 1462 862 136 205 168 78 174 228 187 199 360 438 327 109
114 144 628 779 952 1650 1825 1992 2098 2052 1929 1847 1889 1979 2062 1845 1358 1381 1113 1282 946 169 150 336 215 153 277 272 324 290 169 19 155
108 169 383 799 1025 1743 2044 2149 2036 1991 1846 2162 2251 2388 2189 1973 1365 1028 1242 1313 1011 284 0 57 61 125 134 217 158 30 46 125 277
191 202 351 657 907 1065 1331 1644 1628 1556 1855 2149 2357 2562 2276 1925 1572 1147 1120 1237 1031 453 198 2 11 1 87 253 65 0 0 36 360
494 470 409 600 992 1252 1121 1145 1298 1313 1560 1764 2155 2434 2204 1881 1594 1152 1172 1231 1044 732 289 109 0 0 24 421 380 8 0 0 216
542 694 678 560 382 609 795 828 914 1150 1437 1998 2252 2298 2212 1924 1571 1091 1053 1085 1111 874 336 222 12 43 227 643 455 67 23 35 181
154 204 343 501 379 361 527 538 800 1135 1424 1746 2018 2227 2302 2128 1654 1151 1168 1223 1176 730 475 167 176 312 185 294 310 28 27 79 112
83 226 482 717 541 554 641 807 904 1247 1483 1721 2006 2155 2285 2225 1627 1386 1321 1390 1400 715 287 38 115 199 417 368 929 84 126 111 133
457 528 682 1067 1181 1180 1229 1172 1548 1778 1766 1846 2053 2219 2242 1951 1513 1433 1464 1461 1297 810 296 124 60 277 560 258 281 330 74 36 281
450 477 475 680 1030 1207 1394 1534 1828 1963 1795 1535 1850 1919 1824 1392 1455 1416 1296 1388 1232 655 362 193 65 65 61 80 196 6 18 34 80
601 795 923 1047 1231 1241 1225 1380 1614 1592 1408 1309 1506 1612 1274 1306 1274 1191 1277 1330 719 301 187 49 16 30 70 112 118 72 44 105 36
712 865 959 993 1154 1198 980 930 927 1095 787 1104 1115 1082 1188 1019 972 912 734 439 333 376 143 56 37 88 217 380 351 178 81 27 33
668 745 756 930 1251 1176 891 896 894 868 925 1056 1099 912 720 645 635 551 338 249 143 93 91 81 99 135 477 515 377 142 49 49 42
159 453 815 921 982 918 674 776 704 710 760 740 703 601 402 212 90 156 204 160 72 45 46 82 79 87 124 42 53 24 18 10 0
6 11 70 654 732 694 738 774 800 724 722 725 659 616 332 86 35 147 51 9 0 0 0 0 7 41 25 36 41 31 1 0 0

GFSFLT1_con_mucape_015.txt.gz
CAPE
90 540 719 283 395 900 1346 1376 2331 2589 3494 4413 4544 4256 4532 4568 4641 2714 2328 2773 1582 771 633 856 2807 1666 1157 463 619 653 628 268 132
24 362 666 449 267 379 982 1342 2195 2641 3483 4139 4334 3238 4648 4682 4617 4462 2654 3201 3465 1702 1741 703 1153 1645 1021 616 663 706 777 162 550
10 130 633 531 332 354 897 882 1501 2422 3071 3942 3641 3764 4137 3927 4284 4659 4431 4495 4161 2856 2343 1931 2078 1412 960 705 710 637 581 634 372
18 61 501 651 395 399 634 679 1041 1654 2295 3220 3457 3581 3696 3833 3711 3851 4517 4317 4078 3805 2606 2670 1907 1950 1123 668 926 373 429 512 293
50 44 261 608 541 500 576 899 769 1037 1522 1582 2649 3060 3814 3886 4009 3961 3808 4364 4249 4189 3441 2714 2356 2032 1410 1112 850 777 660 459 226
32 67 84 518 666 695 761 879 1170 865 1374 1084 1462 2811 3043 3697 3691 4136 3873 4406 4276 4181 3661 3144 1741 1717 1115 1202 597 401 496 867 888
0 3 484 375 774 1326 1436 1667 1856 1737 1423 1058 1345 1798 2101 3089 3737 3765 3893 4382 4290 4343 4014 3034 1692 1906 1458 1008 351 426 276 586 597
0 0 195 866 1099 2330 2724 2519 2651 2527 2100 2269 1811 2401 2431 2942 3741 3980 4128 4119 4437 4395 3657 2711 1965 1760 1415 887 460 265 75 503 571
0 3 21 937 1220 1703 3066 3016 3326 3262 3071 3059 2789 3370 3204 3519 4338 4131 4172 4404 4527 4369 3764 2785 2092 1564 1118 460 209 65 96 533 597
0 1 67 250 1117 1533 2412 2500 3635 3523 3828 3418 3640 3969 4528 4299 4818 4753 4784 4624 4542 4130 3722 2411 1792 1311 801 458 176 256 192 70 247
59 187 235 176 963 1521 2558 2276 2394 3080 3080 4214 4333 4608 4476 4761 4835 5073 4932 4553 4347 3739 2676 1829 1703 1316 946 591 553 510 345 228 79
42 38 166 170 1198 1483 3009 2948 3527 3654 3475 3969 4236 4439 4584 4673 4739 4768 4779 4271 3805 2849 2164 1815 1270 1055 1192 894 861 811 471 171 22
7 255 233 362 1421 1681 2672 3228 2600 3233 2973 3309 3641 3906 3859 4359 4452 4606 4203 3782 3163 2827 2245 1552 1594 1255 1065 1026 776 471 233 11 330
66 471 456 1544 1925 2759 3292 2861 2643 3613 3404 3197 3024 2911 3007 3634 3816 4184 4108 3652 2891 2463 2136 1409 1144 1078 1017 927 913 773 241 69 175
909 897 1233 1825 2308 2468 2829 2986 3299 3752 3564 3535 3709 3708 3664 3754 4074 3356 3115 3084 2569 2033 1496 1301 1248 1058 836 1168 1413 539 252 41 104
1757 1804 1699 1759 2036 2295 2691 3120 3176 3710 4618 4303 4160 3959 4254 3999 3467 2721 2650 2413 2055 1391 1239 1255 1014 740 1384 1439 883 1304 183 159 73
1557 1756 1849 1921 2077 2249 3248 3616 3475 3606 3349 3481 3520 3739 2958 2683 2563 2098 1721 1652 1500 1205 1196 893 1020 1069 1198 1079 874 139 342 75 12
1091 1064 1135 1471 1831 2059 2420 2687 2689 2731 2937 3178 3075 2265 1761 2159 1951 1446 1015 937 855 853 726 801 1073 840 1107 735 615 555 188 62 99
1276 1137 1151 1271 1580 1969 2418 2587 2684 2769 2915 2721 2375 2120 1764 1574 1412 991 801 671 556 606 346 497 382 332 312 154 29 34 28 64 117
92 671 1183 1323 1537 1791 2182 2248 2305 2396 2576 2507 2479 2157 2148 1569 1393 1125 1127 953 811 427 135 207 300 6 0 1 16 3 48 83 70

GFSFLT1_con_mucape_021.txt.gz
CAPE
151 113 210 282 316 246 540 724 1334 2054 2159 2108 2473 2363 2422 2031 2261 1840 1477 1877 1362 1128 944 807 1111 1131 713 692 52 645 446 233 200
26 2 299 348 337 268 476 639 1455 1545 2495 2319 2430 2649 2595 2290 2032 2526 2633 2328 1950 1147 639 910 924 1196 737 597 121 189 519 217 53
40 22 191 426 356 288 485 662 1242 1566 2601 2504 2580 2122 2752 2834 2502 2203 2521 2702 1853 1772 1194 1546 877 1164 839 566 272 193 482 325 260
54 6 82 430 339 343 621 746 1080 1582 2334 2538 2701 2651 2319 2794 3035 2556 2335 2684 2031 1682 1491 1009 1101 1077 992 672 515 404 586 389 128
26 3 185 420 493 414 830 850 887 1554 2636 2687 2817 2959 2752 2492 2866 2958 2496 2181 2291 2014 1507 1413 1266 1057 1155 845 569 528 639 405 191
20 24 440 547 513 685 927 975 888 1406 2244 2842 2964 3044 3035 2892 2648 3003 2859 2375 2327 2613 1976 1741 1357 1409 1066 914 660 369 569 445 252
22 52 113 580 615 637 866 1121 1168 1164 1723 2591 2918 3162 3049 2960 2902 2888 2960 2967 2387 2625 2858 2115 1677 1256 1143 903 684 445 515 490 367
23 108 607 479 702 606 846 985 1132 1275 1487 1733 2643 2944 3050 2826 2887 2969 2998 2963 3144 2582 2711 2887 2161 1674 1189 806 608 511 496 426 378
35 0 670 641 830 676 541 720 942 1162 1452 1645 1831 2693 2825 2814 2654 2855 2838 2979 2971 3292 2860 2939 2827 2387 1889 1412 1043 778 653 448 381
20 15 505 529 635 940 601 712 857 1067 1335 1545 1735 1994 2616 2677 2642 2700 2755 2809 2887 3149 3336 3122 3221 2944 2597 2122 1823 1576 1392 1232 849
0 36 220 770 989 1445 1539 1018 923 1061 1183 1476 1590 1696 2155 2453 2531 2556 2715 2837 2998 2956 3359 3261 3390 3340 3146 2840 2458 2239 2087 1795 1194
0 1 17 52 824 1114 1457 1827 1259 1063 1103 1288 1380 1408 1572 2092 2301 2546 2606 2896 2881 3137 3058 3365 3424 3408 3293 3112 2775 2461 2198 1640 1148
278 9 0 3 26 424 1499 1503 2167 1832 1494 1301 1304 1281 1762 1933 2131 2378 2761 2940 3027 3135 3297 3542 3580 3452 3298 3455 2843 2288 1794 1107 811
518 540 54 0 0 270 1378 1651 2349 2150 1989 1750 1734 1836 2072 2391 2725 2808 3120 3142 3286 3621 3700 3681 3632 3508 3436 3004 2323 1915 1387 1124 675
362 1090 1001 327 0 1004 1810 1968 2475 2593 2698 2303 2079 3665 3194 4407 4111 4105 4125 3922 3975 3753 3290 3650 3508 3519 2519 2283 1752 1227 1050 614 269
2217 2116 3083 3192 3203 3267 3179 2804 2901 3055 3791 3775 3852 3807 4131 4425 4463 4580 4374 4275 3761 3220 3741 3709 2393 2596 2108 1787 1214 977 555 438 487
2748 2954 3174 3187 3216 3716 4110 4129 4031 4119 3915 3860 3905 3899 3938 3938 3906 3928 4039 4004 3212 3336 3106 2321 1846 1789 2020 1396 768 697 671 664 712
2296 2662 3153 3478 3893 3759 3803 3790 3851 3709 3690 3693 3687 3700 3703 3621 3525 3446 3381 3256 2998 2664 2074 1749 1594 1913 988 681 805 729 594 453 457
1687 2035 1875 2458 3394 3517 3626 3691 3638 3593 3531 3436 3425 3325 2629 2840 3015 2987 2894 2750 2268 1817 1493 1382 1081 881 787 783 659 497 272 16 3
1197 1294 1628 1985 2126 2860 3206 3195 3154 3403 3269 2884 2441 2291 2503 2705 2546 2183 2378 1520 1407 1280 1313 853 790 776 755 662 406 370 42 23 0